weather.gov     
National Weather Service

Regional Weather Roundup
NWS Homepage
This page is being discontinued on March 12, 2014.
The same data is available at this site. Please update your bookmarks.
Thank you, and we apologize for the inconvenience.
Please send an email to SR-SRH.Webmaster@noaa.gov with any concerns.


Current Version
Previous Version:    01  02  03  04  05  06  07  08  09  10  11  12  13  14  15  16  17  18  19  20  21  22  23  24  25  26  27  28  29  30  
   31  32  33  34  35  36  37  38  39  40  41  42  43  44  45  46  47  48  49  50  51  52  53  54  55  56  57  58  59  60  
[Printable]
409
ASUS43 KDTX 251210
RWRMI
MICHIGAN HOURLY REGIONAL WEATHER ROUNDUP
NATIONAL WEATHER SERVICE DETROIT/PONTIAC MI
800 AM EDT SAT OCT 25 2014

NOTE: "FAIR" INDICATES FEW OR NO CLOUDS BELOW 12,000 FEET WITH NO
SIGNIFICANT WEATHER AND/OR OBSTRUCTION TO VISIBILITY.

MIZ047>049-052>055-059>063-066>070-074>076-081>083-251300-
SOUTHEAST LOWER MICHIGAN

CITY           SKY/WX    TMP DP  RH WIND       PRES   REMARKS
ADRIAN         MOCLDY    48  47  96 W5        29.89S FOG
6HR MIN TEMP:  44; 6HR MAX TEMP:  48;

ALMA           CLOUDY    51  49  92 SW8       29.80F FOG
ANN ARBOR      CLOUDY    47  45  93 SW6       29.86S FOG
BAD AXE        CLOUDY    51  49  91 SW8       29.77F
6HR MIN TEMP:  42; 6HR MAX TEMP:  51;

CARO           MOCLDY    51  48  89 SW8       29.77F
DETROIT CITY   CLOUDY    53  48  83 SW6       29.85F HAZE
6HR MIN TEMP:  48; 6HR MAX TEMP:  54;

DETROIT        CLOUDY    50  48  93 SW10      29.87S FOG
6HR MIN TEMP:  44; 6HR MAX TEMP:  50;

FLINT          PTCLDY    54  47  77 SW9       29.82F
6HR MIN TEMP:  44; 6HR MAX TEMP:  54;

GROSSE ILE     CLOUDY    52  48  87 SW5       29.85S FOG
HILLSDALE      MOCLDY    55  53  93 W7        29.88F
6HR MIN TEMP:  46; 6HR MAX TEMP:  55;

HOWELL         PTCLDY    52  49  89 SW8       29.82F
6HR MIN TEMP:  45; 6HR MAX TEMP:  52;


CITY           SKY/WX    TMP DP  RH WIND       PRES   REMARKS
JACKSON        MOCLDY    53  50  89 MISG      29.85F
6HR MIN TEMP:  42; 6HR MAX TEMP:  53;

LAMBERTVILLE   CLOUDY    54  50  87 SW9       29.88F
LANSING        MOCLDY    53  48  83 SW9       29.83F
6HR MIN TEMP:  44; 6HR MAX TEMP:  53;

LAPEER         CLOUDY    54  46  75 W8        29.80F
MASON          PTCLDY    53  49  84 SW6       29.83F
MONROE         CLOUDY    54  50  87 SW9       29.85F FOG
MT. CLEMENS    CLOUDY    51  50  99 SW9       29.80F
6HR MIN TEMP:  46; 6HR MAX TEMP:  51;

PONTIAC        CLOUDY    50  47  89 SW6       29.82F
6HR MIN TEMP:  43; 6HR MAX TEMP:  50;

PORT HOPE        N/A     53  46  77 SW9G18    29.73F
6HR MIN TEMP:  48; 6HR MAX TEMP:  53;

PORT HURON     CLOUDY    50  48  93 SW5       29.80F FOG
TRI CITIES     PTCLDY    51  47  86 SW10      29.78F
6HR MIN TEMP:  47; 6HR MAX TEMP:  51;

TROY           CLOUDY    50  46  87 SW6       29.86S FOG
SAGINAW HB     MOCLDY    50  50 100 SW8       29.78F
$$
MIZ043>046-050>051-056>058-064>065-071>073-077>080-251300-
SOUTHWEST LOWER MICHIGAN

CITY           SKY/WX    TMP DP  RH WIND       PRES   REMARKS
BATTLE CREEK   CLOUDY    54  49  83 SW8       29.86F
6HR MIN TEMP:  45; 6HR MAX TEMP:  55;

BENTON HARBOR  CLOUDY    56  54  93 W14       29.89S FOG
6HR MIN TEMP:  53; 6HR MAX TEMP:  58;

BIG RAPIDS     CLOUDY    54  54 100 W7        29.80S FOG
6HR MIN TEMP:  42; 6HR MAX TEMP:  54;

COLDWATER      CLOUDY    55  53  92 SW7       29.88F
6HR MIN TEMP:  50; 6HR MAX TEMP:  55;

FREMONT        CLOUDY    53  52  95 W5        29.82S FOG
6HR MIN TEMP:  47; 6HR MAX TEMP:  53;

HOLLAND        MOCLDY    57  54  89 W13       29.86S
6HR MIN TEMP:  53; 6HR MAX TEMP:  60;

GRAND RAPIDS   CLOUDY    55  52  89 W13       29.84S
6HR MIN TEMP:  46; 6HR MAX TEMP:  56;

IONIA          CLOUDY    55  52  90 W12       29.82S
KALAMAZOO      MOCLDY    57  52  83 SW8       29.87F
6HR MIN TEMP:  49; 6HR MAX TEMP:  57;

LUDINGTON      CLOUDY    55  53  95 W7        29.82R FOG
6HR MIN TEMP:  51; 6HR MAX TEMP:  57;

MARSHALL       CLOUDY    52  49  90 SW7       29.86F
MOUNT PLEASANT CLOUDY    50  49  95 SW6       29.78F FOG
6HR MIN TEMP:  40; 6HR MAX TEMP:  51;

MUSKEGON       CLOUDY    56  52  86 W10       29.84S
6HR MIN TEMP:  51; 6HR MAX TEMP:  59;

SOUTH HAVEN    CLOUDY    58  55  92 W10       29.88S FOG
$$
MIZ016>042-251300-
NORTHERN LOWER MICHIGAN

CITY           SKY/WX    TMP DP  RH WIND       PRES   REMARKS
ALPENA         PTCLDY    52  49  89 SW7       29.67S
6HR MIN TEMP:  45; 6HR MAX TEMP:  53;

BEAVER ISLAND  CLEAR     52  51  96 W13G21    29.70R
6HR MIN TEMP:  52; 6HR MAX TEMP:  54;

BELLAIRE       CLOUDY    54  51  89 SW7       29.73S
CADILLAC       CLOUDY    53  51  95 W12       29.76F
CHARLEVOIX     PTCLDY    54  53  96 SW15G22   29.74S FOG
6HR MIN TEMP:  50; 6HR MAX TEMP:  56;

FRANKFORT      CLOUDY    54  51  89 W7        29.77F FOG
GAYLORD        CLOUDY    52  49  89 W18G26    29.71F
6HR MIN TEMP:  45; 6HR MAX TEMP:  52;

GRAYLING       CLOUDY    54  53  95 W8        29.74F FOG
6HR MIN TEMP:  45; 6HR MAX TEMP:  54;

HARBOR SPRINGS CLOUDY    55  51  86 W8G17     29.70R
HOUGHTON LAKE  CLOUDY    51  49  92 W9        29.75S FOG
6HR MIN TEMP:  46; 6HR MAX TEMP:  51;

MANISTEE       MOCLDY    54  48  82 W9        29.80S
OSCODA         CLOUDY    49  47  96 SW12      29.70F FOG
PELLSTON       MOCLDY    54  51  90 W15G21    29.69S
6HR MIN TEMP:  49; 6HR MAX TEMP:  55;

ROGERS CITY    PTCLDY    54  52  94 W12G22    29.66S
TRAVERSE CITY  PTCLDY    55  50  83 W9        29.73F
6HR MIN TEMP:  50; 6HR MAX TEMP:  55;

$$
MIZ007>008-015-251300-
EASTERN UPPER MICHIGAN

CITY           SKY/WX    TMP DP  RH WIND       PRES   REMARKS
KINROSS        CLEAR     52  50  93 W8        29.63S
6HR MIN TEMP:  50; 6HR MAX TEMP:  54;

MACKINAC ISLAN CLOUDY    53  52  97 W13G28    29.65F
6HR MIN TEMP:  48; 6HR MAX TEMP:  53;

NEWBERRY       CLEAR     48  46  91 W12G21    29.64F
S. S. MARIE    CLEAR     52  46  80 W12G18    29.61S
6HR MIN TEMP:  50; 6HR MAX TEMP:  53; 6HR PCP: TRACE;

MUNISING         N/A     50  42  74 SW7       29.66F
6HR MIN TEMP:  49; 6HR MAX TEMP:  55;

$$
MIZ004>006-011>014-085-251300-
CENTRAL UPPER MICHIGAN

CITY           SKY/WX    TMP DP  RH WIND       PRES   REMARKS
MANISTIQUE     CLEAR     49  47  93 W7        29.68S
ESCANABA       CLEAR     46  43  87 W8        29.72S
6HR MIN TEMP:  46; 6HR MAX TEMP:  52;

MENOMINEE      CLEAR     52  46  82 W6        29.76F
6HR MIN TEMP:  52; 6HR MAX TEMP:  54;

SAWYER-GWINN   CLEAR     48  41  76 W10       29.68F
$$
MIZ001>003-009>011-084-251300-
WESTERN UPPER MICHIGAN

CITY           SKY/WX    TMP DP  RH WIND       PRES   REMARKS
IRON MOUNTAIN  CLEAR     51  40  65 W12       29.74S
6HR MIN TEMP:  51; 6HR MAX TEMP:  55;

HOUGHTON       CLEAR     51  36  56 W26G37    29.68R
6HR MIN TEMP:  51; 6HR MAX TEMP:  59;

COPPER HARBOR    N/A     54  36  50 N17G33    29.64R
6HR MIN TEMP:  54; 6HR MAX TEMP:  63;

IRONWOOD       CLEAR     48  36  61 W16       29.79S
6HR MIN TEMP:  46; 6HR MAX TEMP:  55;

$$

ABBREVIATIONS USED IN REMARKS
   TC - TEMPERATURE IN CELSIUS
  WCI - WIND CHILL INDEX
   HX - HEAT INDEX
  VSB - VISIBILITY





U.S. Dept. of Commerce
NOAA National Weather Service
1325 East West Highway
Silver Spring, MD 20910
E-mail: w-nws.webmaster@noaa.gov
Page last modified: May 16, 2007
NATIONAL WEATHER SERVICE: for Safety, for Work, for Fun - FOR LIFE